This is the latest recevied weather packets stored in our database for station/object NK7I. If no packets are shown the sender has not sent any weather packets the latest 10 day(s).
| Time | Temp. | Humidity | Pressure | Rain* | Wind** | Luminosity | Snow |
|---|---|---|---|---|---|---|---|
| 1777569382 | 13.89° C | 54% | 1023.3 hPa | 0 mm | - | 1067 W/m² | - |
| 1777569082 | 13.33° C | 55% | 1023.3 hPa | 0 mm | - | 1051 W/m² | - |
| 1777568784 | 12.78° C | 56% | 1023.3 hPa | 0 mm | - | 1034 W/m² | - |
| 1777568482 | 12.78° C | 58% | 1023.5 hPa | 0 mm | - | 1018 W/m² | - |
| 1777568182 | 12.78° C | 57% | 1023.6 hPa | 0 mm | - | 1005 W/m² | - |
| 1777567882 | 12.22° C | 55% | 1023.6 hPa | 0 mm | - | 986 W/m² | - |
| 1777567582 | 12.22° C | 58% | 1023.6 hPa | 0 mm | - | 731 W/m² | - |
| 1777567283 | 12.22° C | 57% | 1023.7 hPa | 0 mm | - | 949 W/m² | - |
| 1777566982 | 12.22° C | 56% | 1023.8 hPa | 0 mm | - | 935 W/m² | - |
| 1777566682 | 12.22° C | 58% | 1023.7 hPa | 0 mm | - | 916 W/m² | - |
| 1777566383 | 12.22° C | 58% | 1023.8 hPa | 0 mm | - | 896 W/m² | - |
| 1777566083 | 12.22° C | 61% | 1023.9 hPa | 0 mm | - | 877 W/m² | - |
| 1777565783 | 11.67° C | 66% | 1023.8 hPa | 0 mm | - | 812 W/m² | - |
| 1777565483 | 11.11° C | 63% | 1023.9 hPa | 0 mm | - | 708 W/m² | - |
| 1777565182 | 11.11° C | 66% | 1024 hPa | 0 mm | - | 566 W/m² | - |
| 1777564882 | 11.11° C | 64% | 1024 hPa | 0 mm | - | 513 W/m² | - |
| 1777564583 | 10.56° C | 66% | 1024 hPa | 0 mm | - | 490 W/m² | - |
| 1777564282 | 10.56° C | 67% | 1024.1 hPa | 0 mm | - | 512 W/m² | - |
| 1777563982 | 10° C | 72% | 1024.3 hPa | 0 mm | - | 548 W/m² | - |
| 1777563683 | 10° C | 70% | 1024.4 hPa | 0 mm | - | 568 W/m² | - |
| 1777563382 | 9.44° C | 69% | 1024.5 hPa | 0 mm | - | 573 W/m² | - |
| 1777563082 | 9.44° C | 74% | 1024.5 hPa | 0 mm | - | 524 W/m² | - |
| 1777562782 | 8.89° C | 77% | 1024.6 hPa | 0 mm | - | 468 W/m² | - |
| 1777562483 | 8.33° C | 82% | 1024.5 hPa | 0 mm | - | 473 W/m² | - |
| 1777562182 | 7.78° C | 79% | 1024.7 hPa | 0 mm | - | 529 W/m² | - |
* Rain latest hour (hover to see other rain measurements)
** Current wind speed in m/s (hover to see current wind gust speed)